,,,PA_Meas_PMT16A,,PR_Meas_QMR101_102,,RH_Meas_QMH101,,SR_Meas_QMS101,,TA_Meas_QMH101,,GenWind,,GenWind,
date,time,status,PA,status,PR,status,RH,status,SR,status,TA,status,DirAvg,status,SpdAvg,
2010-05-30, 00:00:04,VALID,1010.19,VALID,0,VALID,101.217,VALID,0,VALID,25.2903,VALID,348,VALID,0.330859,
2010-05-30, 00:01:04,VALID,1010.19,VALID,0,VALID,101.156,VALID,0.105969,VALID,25.2903,VALID,348,VALID,0,
2010-05-30, 00:02:04,VALID,1010.17,VALID,0,VALID,101.186,VALID,0.105969,VALID,25.2903,VALID,348,VALID,0,
2010-05-30, 00:03:04,VALID,1010.15,VALID,0,VALID,101.156,VALID,0,VALID,25.3117,VALID,348,VALID,0,
2010-05-30, 00:04:04,VALID,1010.13,VALID,0,VALID,101.209,VALID,0.105969,VALID,25.3117,VALID,348,VALID,0.00585938,
2010-05-30, 00:05:04,VALID,1010.11,VALID,0,VALID,101.186,VALID,0,VALID,25.2922,VALID,348,VALID,0,
2010-05-30, 00:06:04,VALID,1010.05,VALID,0,VALID,101.224,VALID,0.105969,VALID,25.2708,VALID,348,VALID,0,
2010-05-30, 00:07:04,VALID,1010.05,VALID,0,VALID,101.27,VALID,0.105969,VALID,25.2903,VALID,348,VALID,0,
2010-05-30, 00:08:04,VALID,1010.01,VALID,0,VALID,101.293,VALID,0,VALID,25.2727,VALID,348,VALID,0,
2010-05-30, 00:09:04,VALID,1010,VALID,0,VALID,101.217,VALID,0,VALID,25.2513,VALID,348,VALID,0,
2010-05-30, 00:10:04,VALID,1009.99,VALID,0,VALID,101.201,VALID,0,VALID,25.2513,VALID,348,VALID,0,
2010-05-30, 00:11:04,VALID,1009.97,VALID,0,VALID,101.156,VALID,0,VALID,25.2123,VALID,348,VALID,0.00390625,
2010-05-30, 00:12:04,VALID,1009.94,VALID,0,VALID,101.072,VALID,0.105969,VALID,25.2337,VALID,348,VALID,0,
2010-05-30, 00:13:04,VALID,1009.93,VALID,0,VALID,101.117,VALID,0,VALID,25.2337,VALID,348,VALID,0,
2010-05-30, 00:14:04,VALID,1009.91,VALID,0,VALID,101.163,VALID,0,VALID,25.2142,VALID,348,VALID,0,
2010-05-30, 00:15:04,VALID,1009.91,VALID,0,VALID,101.163,VALID,0,VALID,25.1947,VALID,348,VALID,0,
2010-05-30, 00:16:04,VALID,1009.89,VALID,0,VALID,101.194,VALID,0,VALID,25.1733,VALID,348,VALID,0,
2010-05-30, 00:17:04,VALID,1009.89,VALID,0,VALID,101.278,VALID,0,VALID,25.1947,VALID,348,VALID,0,
2010-05-30, 00:18:04,VALID,1009.88,VALID,0,VALID,101.262,VALID,0,VALID,25.1752,VALID,348,VALID,0,
2010-05-30, 00:19:04,VALID,1009.86,VALID,0,VALID,101.255,VALID,0.105969,VALID,25.1538,VALID,348,VALID,0,
2010-05-30, 00:20:04,VALID,1009.86,VALID,0,VALID,101.186,VALID,0,VALID,25.1557,VALID,348,VALID,0,
2010-05-30, 00:21:04,VALID,1009.89,VALID,0,VALID,101.163,VALID,0,VALID,25.1557,VALID,348,VALID,0,
2010-05-30, 00:22:04,VALID,1009.88,VALID,0,VALID,101.163,VALID,0.105969,VALID,25.1557,VALID,348,VALID,0,
2010-05-30, 00:23:04,VALID,1009.87,VALID,0,VALID,101.178,VALID,0,VALID,25.1752,VALID,348,VALID,0,
2010-05-30, 00:24:04,VALID,1009.89,VALID,0,VALID,101.232,VALID,0.105969,VALID,25.1538,VALID,348,VALID,0,
2010-05-30, 00:25:04,VALID,1009.87,VALID,0,VALID,101.201,VALID,0.105969,VALID,25.1343,VALID,348,VALID,0.107813,
2010-05-30, 00:26:04,VALID,1009.86,VALID,0,VALID,101.125,VALID,0.105969,VALID,25.1557,VALID,348,VALID,0,
2010-05-30, 00:27:04,VALID,1009.82,VALID,0,VALID,100.995,VALID,0.105969,VALID,25.1148,VALID,348,VALID,0,
2010-05-30, 00:28:04,VALID,1009.82,VALID,0,VALID,101.026,VALID,0,VALID,25.1557,VALID,348,VALID,0,
2010-05-30, 00:29:04,VALID,1009.83,VALID,0,VALID,101.003,VALID,0,VALID,25.1343,VALID,348,VALID,0,
2010-05-30, 00:30:04,VALID,1009.8,VALID,0,VALID,100.98,VALID,0,VALID,25.1362,VALID,348,VALID,0,
2010-05-30, 00:31:04,VALID,1009.78,VALID,0,VALID,100.812,VALID,0,VALID,25.1362,VALID,301,VALID,0.546875,
2010-05-30, 00:32:04,VALID,1009.81,VALID,0,VALID,100.538,VALID,0,VALID,25.1148,VALID,302,VALID,0.310937,
2010-05-30, 00:33:04,VALID,1009.79,VALID,0,VALID,100.553,VALID,0.105969,VALID,25.1343,VALID,306,VALID,0.0195313,
2010-05-30, 00:34:04,VALID,1009.79,VALID,0,VALID,100.591,VALID,0,VALID,25.1343,VALID,306,VALID,0,
2010-05-30, 00:35:04,VALID,1009.83,VALID,0,VALID,100.561,VALID,0,VALID,25.1343,VALID,306,VALID,0,
2010-05-30, 00:36:04,VALID,1009.83,VALID,0,VALID,100.408,VALID,0,VALID,25.1343,VALID,307,VALID,0,
2010-05-30, 00:37:04,VALID,1009.84,VALID,0,VALID,100.294,VALID,0,VALID,25.1343,VALID,308,VALID,0,
2010-05-30, 00:38:04,VALID,1009.85,VALID,0,VALID,100.347,VALID,0,VALID,25.1538,VALID,312,VALID,0,
2010-05-30, 00:39:04,VALID,1009.86,VALID,0,VALID,100.309,VALID,0,VALID,25.1752,VALID,312,VALID,0,
2010-05-30, 00:40:04,VALID,1009.84,VALID,0,VALID,100.058,VALID,0,VALID,25.1557,VALID,312,VALID,0,
2010-05-30, 00:41:04,VALID,1009.85,VALID,0,VALID,99.8974,VALID,0.105969,VALID,25.1557,VALID,312,VALID,0,
2010-05-30, 00:42:04,VALID,1009.83,VALID,0,VALID,99.9202,VALID,0,VALID,25.1752,VALID,312,VALID,0,
2010-05-30, 00:43:04,VALID,1009.81,VALID,0,VALID,99.9965,VALID,0,VALID,25.1538,VALID,312,VALID,0,
2010-05-30, 00:44:04,VALID,1009.85,VALID,0,VALID,100.012,VALID,0,VALID,25.1557,VALID,312,VALID,0,
2010-05-30, 00:45:04,VALID,1009.83,VALID,0,VALID,100.111,VALID,0,VALID,25.1557,VALID,312,VALID,0,
2010-05-30, 00:46:04,VALID,1009.82,VALID,0,VALID,100.233,VALID,0,VALID,25.1557,VALID,312,VALID,0,
2010-05-30, 00:47:04,VALID,1009.81,VALID,0,VALID,100.401,VALID,0,VALID,25.1557,VALID,312,VALID,0,
2010-05-30, 00:48:04,VALID,1009.83,VALID,0,VALID,100.248,VALID,0,VALID,25.1362,VALID,312,VALID,0,
2010-05-30, 00:49:04,VALID,1009.86,VALID,0,VALID,99.8669,VALID,0,VALID,25.1148,VALID,312,VALID,0,
2010-05-30, 00:50:04,VALID,1009.85,VALID,0,VALID,99.9813,VALID,0,VALID,25.1557,VALID,312,VALID,0,
2010-05-30, 00:51:04,VALID,1009.85,VALID,0,VALID,100.119,VALID,0,VALID,25.1557,VALID,312,VALID,0,
2010-05-30, 00:52:04,VALID,1009.83,VALID,0,VALID,100.286,VALID,0,VALID,25.1557,VALID,312,VALID,0,
2010-05-30, 00:53:04,VALID,1009.8,VALID,0,VALID,100.21,VALID,0,VALID,25.1362,VALID,312,VALID,0,
2010-05-30, 00:54:04,VALID,1009.8,VALID,0,VALID,99.6381,VALID,0,VALID,25.1557,VALID,312,VALID,0,
2010-05-30, 00:55:04,VALID,1009.79,VALID,0,VALID,99.4932,VALID,0.105969,VALID,25.1752,VALID,312,VALID,0,
2010-05-30, 00:56:04,VALID,1009.79,VALID,0,VALID,99.7449,VALID,0.105969,VALID,25.2142,VALID,312,VALID,0,
2010-05-30, 00:57:04,VALID,1009.77,VALID,0,VALID,99.8135,VALID,0.105969,VALID,25.1733,VALID,312,VALID,0,
2010-05-30, 00:58:04,VALID,1009.73,VALID,0,VALID,99.8059,VALID,0.105969,VALID,25.1947,VALID,312,VALID,0,
2010-05-30, 00:59:04,VALID,1009.72,VALID,0,VALID,99.8745,VALID,0.105969,VALID,25.2142,VALID,312,VALID,0,
2010-05-30, 01:00:04,VALID,1009.71,VALID,0,VALID,99.6686,VALID,0,VALID,25.1733,VALID,312,VALID,0,
2010-05-30, 01:01:04,VALID,1009.68,VALID,0,VALID,99.6762,VALID,0,VALID,25.1733,VALID,312,VALID,0,
2010-05-30, 01:02:04,VALID,1009.62,VALID,0,VALID,99.6228,VALID,0,VALID,25.1947,VALID,312,VALID,0,
2010-05-30, 01:03:04,VALID,1009.6,VALID,0,VALID,99.5771,VALID,0,VALID,25.1752,VALID,312,VALID,0,
2010-05-30, 01:04:04,VALID,1009.6,VALID,0,VALID,99.6686,VALID,0,VALID,25.1752,VALID,312,VALID,0,
2010-05-30, 01:05:04,VALID,1009.57,VALID,0,VALID,99.7144,VALID,0,VALID,25.1538,VALID,312,VALID,0,
2010-05-30, 01:06:04,VALID,1009.59,VALID,0,VALID,99.6228,VALID,0,VALID,25.1557,VALID,312,VALID,0,
2010-05-30, 01:07:04,VALID,1009.57,VALID,0,VALID,99.4322,VALID,0.105969,VALID,25.1343,VALID,312,VALID,0,
2010-05-30, 01:08:04,VALID,1009.55,VALID,0,VALID,99.3483,VALID,0,VALID,25.1362,VALID,312,VALID,0,
2010-05-30, 01:09:04,VALID,1009.5,VALID,0,VALID,99.4093,VALID,0,VALID,25.1362,VALID,312,VALID,0,
2010-05-30, 01:10:04,VALID,1009.52,VALID,0,VALID,99.844,VALID,0,VALID,25.1752,VALID,312,VALID,0,
2010-05-30, 01:11:04,VALID,1009.45,VALID,0,VALID,99.9126,VALID,0,VALID,25.0954,VALID,312,VALID,0,
2010-05-30, 01:12:04,VALID,1009.43,VALID,0,VALID,99.844,VALID,0.105969,VALID,25.0973,VALID,312,VALID,0,
2010-05-30, 01:13:04,VALID,1009.38,VALID,0,VALID,99.9431,VALID,0,VALID,25.0954,VALID,312,VALID,0,
2010-05-30, 01:14:04,VALID,1009.37,VALID,0,VALID,99.9202,VALID,0,VALID,25.0973,VALID,312,VALID,0,
2010-05-30, 01:15:04,VALID,1009.34,VALID,0,VALID,99.9279,VALID,0,VALID,25.0778,VALID,312,VALID,0,
2010-05-30, 01:16:04,VALID,1009.3,VALID,0,VALID,100.073,VALID,0,VALID,25.0778,VALID,312,VALID,0,
2010-05-30, 01:17:04,VALID,1009.28,VALID,0,VALID,100.225,VALID,0,VALID,25.0583,VALID,312,VALID,0,
2010-05-30, 01:18:04,VALID,1009.26,VALID,0,VALID,100.218,VALID,0.105969,VALID,25.0369,VALID,312,VALID,0,
2010-05-30, 01:19:04,VALID,1009.21,VALID,0,VALID,100.34,VALID,0,VALID,25.0583,VALID,312,VALID,0,
2010-05-30, 01:20:04,VALID,1009.16,VALID,0,VALID,100.439,VALID,0,VALID,25.0583,VALID,312,VALID,0,
2010-05-30, 01:21:04,VALID,1009.1,VALID,0,VALID,100.363,VALID,0,VALID,25.0388,VALID,312,VALID,0,
2010-05-30, 01:22:04,VALID,1009.06,VALID,0,VALID,100.355,VALID,0,VALID,25.0388,VALID,312,VALID,0,
2010-05-30, 01:23:04,VALID,1009.03,VALID,0,VALID,100.21,VALID,0,VALID,25.0583,VALID,312,VALID,0,
2010-05-30, 01:24:04,VALID,1008.96,VALID,0,VALID,100.248,VALID,0.105969,VALID,25.0564,VALID,312,VALID,0,
2010-05-30, 01:25:04,VALID,1008.95,VALID,0,VALID,100.126,VALID,0,VALID,25.0973,VALID,312,VALID,0,
2010-05-30, 01:26:04,VALID,1008.92,VALID,0,VALID,100.027,VALID,0,VALID,25.0973,VALID,312,VALID,0,
2010-05-30, 01:27:04,VALID,1008.9,VALID,0,VALID,99.9126,VALID,0,VALID,25.0973,VALID,312,VALID,0,
2010-05-30, 01:28:04,VALID,1008.87,VALID,0,VALID,99.8592,VALID,0,VALID,25.0973,VALID,312,VALID,0,
2010-05-30, 01:29:04,VALID,1008.86,VALID,0,VALID,99.9431,VALID,0,VALID,25.0564,VALID,312,VALID,0,
2010-05-30, 01:30:04,VALID,1008.83,VALID,0,VALID,100.111,VALID,0,VALID,25.0583,VALID,312,VALID,0,
2010-05-30, 01:31:04,VALID,1008.79,VALID,0,VALID,100.309,VALID,0,VALID,25.0388,VALID,312,VALID,0,
2010-05-30, 01:32:04,VALID,1008.79,VALID,0,VALID,100.507,VALID,0,VALID,24.9784,VALID,312,VALID,0,
2010-05-30, 01:33:04,VALID,1008.73,VALID,0,VALID,100.637,VALID,0,VALID,24.9803,VALID,312,VALID,0,
2010-05-30, 01:34:04,VALID,1008.68,VALID,0,VALID,100.744,VALID,0,VALID,24.9608,VALID,312,VALID,0,
2010-05-30, 01:35:04,VALID,1008.69,VALID,0,VALID,100.851,VALID,0,VALID,24.9199,VALID,312,VALID,0,
2010-05-30, 01:36:04,VALID,1008.67,VALID,0,VALID,100.95,VALID,0,VALID,24.9199,VALID,312,VALID,0,
2010-05-30, 01:37:04,VALID,1008.68,VALID,0,VALID,100.988,VALID,0.105969,VALID,24.9218,VALID,312,VALID,0,
2010-05-30, 01:38:04,VALID,1008.68,VALID,0,VALID,101.003,VALID,0,VALID,24.9023,VALID,312,VALID,0,
2010-05-30, 01:39:04,VALID,1008.7,VALID,0,VALID,101.064,VALID,0,VALID,24.8828,VALID,312,VALID,0,
2010-05-30, 01:40:04,VALID,1008.72,VALID,0,VALID,101.064,VALID,0.105969,VALID,24.842,VALID,312,VALID,0,
2010-05-30, 01:41:04,VALID,1008.74,VALID,0,VALID,101.102,VALID,0,VALID,24.842,VALID,312,VALID,0,
2010-05-30, 01:42:04,VALID,1008.76,VALID,0,VALID,101.102,VALID,0,VALID,24.8244,VALID,312,VALID,0,
2010-05-30, 01:43:04,VALID,1008.76,VALID,0,VALID,101.11,VALID,0,VALID,24.8244,VALID,312,VALID,0,
2010-05-30, 01:44:04,VALID,1008.8,VALID,0,VALID,101.133,VALID,0,VALID,24.8049,VALID,312,VALID,0,
2010-05-30, 01:45:04,VALID,1008.8,VALID,0,VALID,101.125,VALID,0,VALID,24.8049,VALID,312,VALID,0,
2010-05-30, 01:46:04,VALID,1008.76,VALID,0,VALID,101.163,VALID,0,VALID,24.8225,VALID,312,VALID,0,
2010-05-30, 01:47:04,VALID,1008.71,VALID,0,VALID,101.171,VALID,0,VALID,24.8244,VALID,312,VALID,0,
2010-05-30, 01:48:04,VALID,1008.71,VALID,0,VALID,101.186,VALID,0,VALID,24.803,VALID,312,VALID,0,
2010-05-30, 01:49:04,VALID,1008.69,VALID,0,VALID,101.209,VALID,0,VALID,24.8244,VALID,312,VALID,0,
2010-05-30, 01:50:04,VALID,1008.67,VALID,0,VALID,101.194,VALID,0,VALID,24.8438,VALID,312,VALID,0,
2010-05-30, 01:51:04,VALID,1008.65,VALID,0,VALID,101.148,VALID,0,VALID,24.8225,VALID,312,VALID,0,
2010-05-30, 01:52:04,VALID,1008.65,VALID,0,VALID,101.14,VALID,0,VALID,24.8225,VALID,312,VALID,0,
2010-05-30, 01:53:04,VALID,1008.65,VALID,0,VALID,101.133,VALID,0,VALID,24.8225,VALID,312,VALID,0,
2010-05-30, 01:54:04,VALID,1008.66,VALID,0,VALID,100.995,VALID,0.105969,VALID,24.8225,VALID,312,VALID,0,
2010-05-30, 01:55:04,VALID,1008.64,VALID,0,VALID,100.843,VALID,0.105969,VALID,24.803,VALID,312,VALID,0,
2010-05-30, 01:56:04,VALID,1008.62,VALID,0,VALID,100.614,VALID,0.105969,VALID,24.8049,VALID,312,VALID,0,
2010-05-30, 01:57:04,VALID,1008.62,VALID,0,VALID,100.69,VALID,0,VALID,24.803,VALID,312,VALID,0.339063,
2010-05-30, 01:58:04,VALID,1008.61,VALID,0,VALID,100.767,VALID,0,VALID,24.8049,VALID,312,VALID,0,
2010-05-30, 01:59:04,VALID,1008.64,VALID,0,VALID,100.69,VALID,0.105969,VALID,24.764,VALID,312,VALID,0,
2010-05-30, 02:00:04,VALID,1008.67,VALID,0,VALID,100.797,VALID,0.105969,VALID,24.764,VALID,312,VALID,0,
2010-05-30, 02:01:04,VALID,1008.64,VALID,0,VALID,100.835,VALID,0.105969,VALID,24.7445,VALID,312,VALID,0,
2010-05-30, 02:02:04,VALID,1008.67,VALID,0,VALID,100.858,VALID,0,VALID,24.7659,VALID,312,VALID,0,
2010-05-30, 02:03:04,VALID,1008.68,VALID,0,VALID,100.965,VALID,0.105969,VALID,24.764,VALID,312,VALID,0,
2010-05-30, 02:04:04,VALID,1008.67,VALID,0,VALID,101.087,VALID,0.105969,VALID,24.7445,VALID,312,VALID,0,
2010-05-30, 02:05:04,VALID,1008.65,VALID,0,VALID,101.049,VALID,0.105969,VALID,24.7445,VALID,312,VALID,0,
2010-05-30, 02:06:04,VALID,1008.66,VALID,0,VALID,101.072,VALID,0,VALID,24.7445,VALID,312,VALID,0,
2010-05-30, 02:07:04,VALID,1008.69,VALID,0,VALID,101.163,VALID,0,VALID,24.7659,VALID,312,VALID,0,
2010-05-30, 02:08:04,VALID,1008.69,VALID,0,VALID,101.209,VALID,0,VALID,24.7659,VALID,312,VALID,0,
2010-05-30, 02:09:04,VALID,1008.71,VALID,0,VALID,101.308,VALID,0,VALID,24.7659,VALID,312,VALID,0,
2010-05-30, 02:10:04,VALID,1008.73,VALID,0,VALID,101.316,VALID,0,VALID,24.7464,VALID,312,VALID,0,
2010-05-30, 02:11:04,VALID,1008.76,VALID,0,VALID,101.346,VALID,0.105969,VALID,24.7037,VALID,312,VALID,0,
2010-05-30, 02:12:04,VALID,1008.73,VALID,0,VALID,101.392,VALID,0,VALID,24.7464,VALID,312,VALID,0,
2010-05-30, 02:13:04,VALID,1008.76,VALID,0,VALID,101.407,VALID,0.105969,VALID,24.725,VALID,312,VALID,0,
2010-05-30, 02:14:04,VALID,1008.73,VALID,0,VALID,101.384,VALID,0,VALID,24.725,VALID,16,VALID,0,
2010-05-30, 02:15:04,VALID,1008.71,VALID,0,VALID,101.369,VALID,0.105969,VALID,24.7659,VALID,23,VALID,0,
2010-05-30, 02:16:04,VALID,1008.72,VALID,0,VALID,101.308,VALID,0.105969,VALID,24.7445,VALID,23,VALID,0,
2010-05-30, 02:17:04,VALID,1008.69,VALID,0,VALID,101.262,VALID,0,VALID,24.7659,VALID,23,VALID,0,
2010-05-30, 02:18:04,VALID,1008.69,VALID,0,VALID,101.224,VALID,0,VALID,24.8067,VALID,23,VALID,0,
2010-05-30, 02:19:04,VALID,1008.68,VALID,0,VALID,101.186,VALID,0,VALID,24.7854,VALID,23,VALID,0,
2010-05-30, 02:20:04,VALID,1008.72,VALID,0,VALID,101.194,VALID,0,VALID,24.8262,VALID,23,VALID,0,
2010-05-30, 02:21:04,VALID,1008.73,VALID,0,VALID,101.095,VALID,0,VALID,24.8049,VALID,23,VALID,0,
2010-05-30, 02:22:04,VALID,1008.75,VALID,0,VALID,101.056,VALID,0,VALID,24.8262,VALID,23,VALID,0,
2010-05-30, 02:23:04,VALID,1008.77,VALID,0,VALID,101.034,VALID,0,VALID,24.8049,VALID,23,VALID,0,
2010-05-30, 02:24:04,VALID,1008.79,VALID,0,VALID,100.973,VALID,0,VALID,24.8067,VALID,23,VALID,0,
2010-05-30, 02:25:04,VALID,1008.81,VALID,0,VALID,101.003,VALID,0,VALID,24.7854,VALID,23,VALID,0,
2010-05-30, 02:26:04,VALID,1008.81,VALID,0,VALID,101.026,VALID,0,VALID,24.7854,VALID,37,VALID,0.394531,
2010-05-30, 02:27:04,VALID,1008.81,VALID,0,VALID,101.095,VALID,0,VALID,24.7854,VALID,62,VALID,0.562891,
2010-05-30, 02:28:04,VALID,1008.81,VALID,0,VALID,101.14,VALID,0,VALID,24.7854,VALID,62,VALID,0.515234,
2010-05-30, 02:29:04,VALID,1008.76,VALID,0,VALID,101.117,VALID,0,VALID,24.8049,VALID,62,VALID,0.371094,
2010-05-30, 02:30:04,VALID,1008.73,VALID,0,VALID,101.087,VALID,0,VALID,24.8049,VALID,62,VALID,0.0375,
2010-05-30, 02:31:04,VALID,1008.72,VALID,0,VALID,101.003,VALID,0,VALID,24.8067,VALID,62,VALID,0,
2010-05-30, 02:32:04,VALID,1008.69,VALID,0,VALID,100.988,VALID,0,VALID,24.8049,VALID,62,VALID,0,
2010-05-30, 02:33:04,VALID,1008.67,VALID,0,VALID,100.965,VALID,0,VALID,24.7445,VALID,62,VALID,0,
2010-05-30, 02:34:04,VALID,1008.64,VALID,0,VALID,100.927,VALID,0,VALID,24.7659,VALID,62,VALID,0,
2010-05-30, 02:35:04,VALID,1008.65,VALID,0,VALID,100.881,VALID,0,VALID,24.725,VALID,53,VALID,0,
2010-05-30, 02:36:04,VALID,1008.65,VALID,0,VALID,100.912,VALID,0,VALID,24.725,VALID,53,VALID,0,
2010-05-30, 02:37:04,VALID,1008.67,VALID,0,VALID,100.995,VALID,0,VALID,24.7055,VALID,53,VALID,0,
2010-05-30, 02:38:04,VALID,1008.66,VALID,0,VALID,101.102,VALID,0.105969,VALID,24.7074,VALID,53,VALID,0,
2010-05-30, 02:39:04,VALID,1008.68,VALID,0,VALID,101.194,VALID,0,VALID,24.7074,VALID,53,VALID,0,
2010-05-30, 02:40:04,VALID,1008.68,VALID,0,VALID,101.308,VALID,0,VALID,24.6879,VALID,53,VALID,0,
2010-05-30, 02:41:04,VALID,1008.69,VALID,0,VALID,101.278,VALID,0,VALID,24.6879,VALID,53,VALID,0,
2010-05-30, 02:42:04,VALID,1008.67,VALID,0,VALID,101.285,VALID,0.105969,VALID,24.6666,VALID,53,VALID,0,
2010-05-30, 02:43:04,VALID,1008.68,VALID,0,VALID,101.316,VALID,0,VALID,24.6471,VALID,53,VALID,0,
2010-05-30, 02:44:04,VALID,1008.67,VALID,0,VALID,101.27,VALID,0,VALID,24.6471,VALID,53,VALID,0,
2010-05-30, 02:45:04,VALID,1008.69,VALID,0,VALID,101.369,VALID,0.105969,VALID,24.6471,VALID,53,VALID,0,
2010-05-30, 02:46:04,VALID,1008.7,VALID,0,VALID,101.392,VALID,0.105969,VALID,24.6471,VALID,53,VALID,0,
2010-05-30, 02:47:04,VALID,1008.69,VALID,0,VALID,101.453,VALID,0,VALID,24.6703,VALID,53,VALID,0,
2010-05-30, 02:48:04,VALID,1008.71,VALID,0,VALID,101.537,VALID,0,VALID,24.6703,VALID,53,VALID,0,
2010-05-30, 02:49:04,VALID,1008.72,VALID,0,VALID,101.491,VALID,0,VALID,24.6703,VALID,53,VALID,0,
2010-05-30, 02:50:04,VALID,1008.71,VALID,0,VALID,101.43,VALID,0,VALID,24.6294,VALID,49,VALID,0,
2010-05-30, 02:51:04,VALID,1008.68,VALID,0,VALID,101.24,VALID,0,VALID,24.6294,VALID,49,VALID,0,
2010-05-30, 02:52:04,VALID,1008.68,VALID,0,VALID,101.247,VALID,0,VALID,24.6508,VALID,49,VALID,0,
2010-05-30, 02:53:04,VALID,1008.64,VALID,0,VALID,101.11,VALID,0,VALID,24.6508,VALID,49,VALID,0,
2010-05-30, 02:54:04,VALID,1008.61,VALID,0,VALID,101.148,VALID,0,VALID,24.6703,VALID,49,VALID,0,
2010-05-30, 02:55:04,VALID,1008.59,VALID,0,VALID,101.24,VALID,0,VALID,24.6684,VALID,42,VALID,0,
2010-05-30, 02:56:04,VALID,1008.57,VALID,0,VALID,101.125,VALID,0,VALID,24.6684,VALID,34,VALID,0,
2010-05-30, 02:57:04,VALID,1008.58,VALID,0,VALID,101.064,VALID,0,VALID,24.6879,VALID,34,VALID,0,
2010-05-30, 02:58:04,VALID,1008.59,VALID,0,VALID,100.942,VALID,0,VALID,24.7093,VALID,34,VALID,0,
2010-05-30, 02:59:04,VALID,1008.61,VALID,0,VALID,101.072,VALID,0,VALID,24.7483,VALID,34,VALID,0,
2010-05-30, 03:00:04,VALID,1008.64,VALID,0,VALID,100.851,VALID,0,VALID,24.7483,VALID,34,VALID,0,
2010-05-30, 03:01:04,VALID,1008.67,VALID,0,VALID,100.698,VALID,0,VALID,24.7464,VALID,34,VALID,0,
2010-05-30, 03:02:04,VALID,1008.68,VALID,0,VALID,100.462,VALID,0.105969,VALID,24.764,VALID,34,VALID,0,
2010-05-30, 03:03:04,VALID,1008.69,VALID,0,VALID,100.263,VALID,0.105969,VALID,24.764,VALID,34,VALID,0,
2010-05-30, 03:04:04,VALID,1008.7,VALID,0,VALID,100.218,VALID,0,VALID,24.7835,VALID,34,VALID,0,
2010-05-30, 03:05:04,VALID,1008.66,VALID,0,VALID,100.058,VALID,0,VALID,24.7835,VALID,34,VALID,0,
2010-05-30, 03:06:04,VALID,1008.66,VALID,0,VALID,100.019,VALID,0,VALID,24.803,VALID,34,VALID,0,
2010-05-30, 03:07:04,VALID,1008.65,VALID,0,VALID,99.9508,VALID,0,VALID,24.803,VALID,34,VALID,0,
2010-05-30, 03:08:04,VALID,1008.64,VALID,0,VALID,100.042,VALID,0,VALID,24.803,VALID,34,VALID,0,
2010-05-30, 03:09:04,VALID,1008.64,VALID,0,VALID,100.225,VALID,0,VALID,24.8225,VALID,34,VALID,0,
2010-05-30, 03:10:04,VALID,1008.66,VALID,0,VALID,100.462,VALID,0.105969,VALID,24.842,VALID,34,VALID,0,
2010-05-30, 03:11:04,VALID,1008.66,VALID,0,VALID,100.446,VALID,0,VALID,24.8615,VALID,34,VALID,0,
2010-05-30, 03:12:04,VALID,1008.67,VALID,0,VALID,100.401,VALID,0,VALID,24.8828,VALID,34,VALID,0,
2010-05-30, 03:13:04,VALID,1008.68,VALID,0,VALID,100.187,VALID,0.105969,VALID,24.8615,VALID,34,VALID,0,
2010-05-30, 03:14:04,VALID,1008.69,VALID,0,VALID,99.8592,VALID,0.105969,VALID,24.8828,VALID,34,VALID,0,
2010-05-30, 03:15:04,VALID,1008.68,VALID,0,VALID,99.9736,VALID,0.105969,VALID,24.8828,VALID,34,VALID,0,
2010-05-30, 03:16:04,VALID,1008.7,VALID,0,VALID,99.8745,VALID,0,VALID,24.8615,VALID,34,VALID,0,
2010-05-30, 03:17:04,VALID,1008.69,VALID,0,VALID,99.9889,VALID,0,VALID,24.842,VALID,34,VALID,0,
2010-05-30, 03:18:04,VALID,1008.69,VALID,0,VALID,100.271,VALID,0.105969,VALID,24.8828,VALID,34,VALID,0,
2010-05-30, 03:19:04,VALID,1008.68,VALID,0,VALID,100.309,VALID,0.105969,VALID,24.8633,VALID,34,VALID,0,
2010-05-30, 03:20:04,VALID,1008.64,VALID,0,VALID,100.263,VALID,0,VALID,24.8633,VALID,34,VALID,0,
2010-05-30, 03:21:04,VALID,1008.61,VALID,0,VALID,100.202,VALID,0,VALID,24.842,VALID,5,VALID,0.227344,
2010-05-30, 03:22:04,VALID,1008.61,VALID,0,VALID,100.21,VALID,0,VALID,24.8633,VALID,5,VALID,0,
2010-05-30, 03:23:04,VALID,1008.61,VALID,0,VALID,100.225,VALID,0,VALID,24.842,VALID,5,VALID,0,
2010-05-30, 03:24:04,VALID,1008.6,VALID,0,VALID,100.18,VALID,0,VALID,24.8633,VALID,5,VALID,0,
2010-05-30, 03:25:04,VALID,1008.61,VALID,0,VALID,100.302,VALID,0,VALID,24.8828,VALID,5,VALID,0,
2010-05-30, 03:26:04,VALID,1008.6,VALID,0,VALID,100.294,VALID,0,VALID,24.8828,VALID,5,VALID,0,
2010-05-30, 03:27:04,VALID,1008.59,VALID,0,VALID,100.347,VALID,0,VALID,24.8615,VALID,5,VALID,0,
2010-05-30, 03:28:04,VALID,1008.56,VALID,0,VALID,100.37,VALID,0,VALID,24.842,VALID,5,VALID,0,
2010-05-30, 03:29:04,VALID,1008.56,VALID,0,VALID,100.576,VALID,0,VALID,24.8438,VALID,5,VALID,0,
2010-05-30, 03:30:04,VALID,1008.53,VALID,0,VALID,100.637,VALID,0,VALID,24.8244,VALID,5,VALID,0,
2010-05-30, 03:31:04,VALID,1008.51,VALID,0,VALID,100.79,VALID,0.105969,VALID,24.803,VALID,5,VALID,0,
2010-05-30, 03:32:04,VALID,1008.48,VALID,0,VALID,101.011,VALID,0.105969,VALID,24.7835,VALID,5,VALID,0,
2010-05-30, 03:33:04,VALID,1008.45,VALID,0,VALID,101.156,VALID,0,VALID,24.7835,VALID,5,VALID,0,
2010-05-30, 03:34:04,VALID,1008.44,VALID,0,VALID,101.278,VALID,0.105969,VALID,24.8049,VALID,5,VALID,0,
2010-05-30, 03:35:04,VALID,1008.46,VALID,0,VALID,101.369,VALID,0.105969,VALID,24.8049,VALID,7,VALID,0.439453,
2010-05-30, 03:36:04,VALID,1008.43,VALID,0,VALID,101.377,VALID,0,VALID,24.7854,VALID,359,VALID,0.00585938,
2010-05-30, 03:37:04,VALID,1008.45,VALID,0,VALID,101.354,VALID,0,VALID,24.7854,VALID,351,VALID,0,
2010-05-30, 03:38:04,VALID,1008.45,VALID,0,VALID,101.331,VALID,0,VALID,24.764,VALID,320,VALID,0,
2010-05-30, 03:39:04,VALID,1008.45,VALID,0,VALID,101.384,VALID,0,VALID,24.7854,VALID,320,VALID,0,
2010-05-30, 03:40:04,VALID,1008.47,VALID,0,VALID,101.423,VALID,0,VALID,24.8049,VALID,320,VALID,0,
2010-05-30, 03:41:04,VALID,1008.52,VALID,0,VALID,101.384,VALID,0,VALID,24.7835,VALID,320,VALID,0,
2010-05-30, 03:42:04,VALID,1008.5,VALID,0,VALID,101.362,VALID,0,VALID,24.7835,VALID,320,VALID,0,
2010-05-30, 03:43:04,VALID,1008.53,VALID,0,VALID,101.339,VALID,0.105969,VALID,24.8049,VALID,320,VALID,0,
2010-05-30, 03:44:04,VALID,1008.54,VALID,0,VALID,101.301,VALID,0.105969,VALID,24.7835,VALID,320,VALID,0,
2010-05-30, 03:45:04,VALID,1008.55,VALID,0,VALID,101.331,VALID,0.105969,VALID,24.803,VALID,320,VALID,0,
2010-05-30, 03:46:04,VALID,1008.56,VALID,0,VALID,101.278,VALID,0,VALID,24.8049,VALID,320,VALID,0,
2010-05-30, 03:47:04,VALID,1008.55,VALID,0,VALID,101.255,VALID,0,VALID,24.803,VALID,320,VALID,0,
2010-05-30, 03:48:04,VALID,1008.53,VALID,0,VALID,101.331,VALID,0,VALID,24.803,VALID,320,VALID,0,
2010-05-30, 03:49:04,VALID,1008.53,VALID,0,VALID,101.323,VALID,0,VALID,24.803,VALID,320,VALID,0,
2010-05-30, 03:50:04,VALID,1008.51,VALID,0,VALID,101.27,VALID,0,VALID,24.7835,VALID,320,VALID,0,
2010-05-30, 03:51:04,VALID,1008.51,VALID,0,VALID,101.224,VALID,0,VALID,24.803,VALID,320,VALID,0,
2010-05-30, 03:52:04,VALID,1008.48,VALID,0,VALID,101.186,VALID,0.105969,VALID,24.803,VALID,320,VALID,0.148438,
2010-05-30, 03:53:04,VALID,1008.48,VALID,0,VALID,101.247,VALID,0.105969,VALID,24.803,VALID,320,VALID,0,
2010-05-30, 03:54:04,VALID,1008.44,VALID,0,VALID,101.217,VALID,0.105969,VALID,24.803,VALID,320,VALID,0,
2010-05-30, 03:55:04,VALID,1008.46,VALID,0,VALID,101.201,VALID,0.105969,VALID,24.8244,VALID,320,VALID,0,